This is the latest recevied weather packets stored in our database for station/object JI6FPP-13. If no packets are shown the sender has not sent any weather packets the latest 10 day(s).
| Time | Temp. | Humidity | Pressure | Rain* | Wind** | Luminosity | Snow |
|---|---|---|---|---|---|---|---|
| 1777517780 | 17.78° C | 55% | 1008 hPa | 0 mm | - | - | - |
| 1777517180 | 17.22° C | 54% | 1009 hPa | 0 mm | - | - | - |
| 1777516580 | 17.22° C | 54% | 1009 hPa | 0 mm | - | - | - |
| 1777515981 | 17.22° C | 54% | 1009 hPa | 0 mm | - | - | - |
| 1777515379 | 17.22° C | 55% | 1008 hPa | 0 mm | - | - | - |
| 1777514779 | 17.22° C | 57% | 1008 hPa | 0 mm | - | - | - |
| 1777514179 | 17.22° C | 57% | 1008 hPa | 0 mm | - | - | - |
| 1777513580 | 17.22° C | 59% | 1008 hPa | 0 mm | - | - | - |
| 1777512980 | 16.67° C | 61% | 1009 hPa | 0 mm | - | - | - |
| 1777512380 | 16.11° C | 60% | 1009 hPa | 0 mm | - | - | - |
| 1777511779 | 16.11° C | 64% | 1009 hPa | 0 mm | - | - | - |
| 1777511180 | 15.56° C | 66% | 1009 hPa | 0 mm | - | - | - |
| 1777510579 | 15° C | 67% | 1009 hPa | 0 mm | - | - | - |
| 1777509980 | 15° C | 68% | 1009 hPa | 0 mm | - | - | - |
| 1777509380 | 14.44° C | 69% | 1009 hPa | 0 mm | - | - | - |
| 1777508780 | 14.44° C | 70% | 1009 hPa | 0 mm | - | - | - |
| 1777508179 | 14.44° C | 70% | 1009 hPa | 0 mm | - | - | - |
| 1777507579 | 14.44° C | 73% | 1009 hPa | 0 mm | - | - | - |
| 1777506980 | 13.89° C | 74% | 1009 hPa | 0 mm | - | - | - |
| 1777506380 | 13.89° C | 75% | 1009 hPa | 0 mm | - | - | - |
| 1777505780 | 13.33° C | 75% | 1009 hPa | 0 mm | - | - | - |
| 1777505181 | 13.33° C | 75% | 1009 hPa | 0 mm | - | - | - |
| 1777504579 | 13.33° C | 76% | 1009 hPa | 0 mm | - | - | - |
| 1777503981 | 12.78° C | 77% | 1010 hPa | 0 mm | - | - | - |
| 1777503380 | 12.78° C | 77% | 1010 hPa | 0 mm | - | - | - |
* Rain latest hour (hover to see other rain measurements)
** Current wind speed in m/s (hover to see current wind gust speed)